Powrót do katalogu

GLOBALSTAR M055

AktywnyŁącznośćLEO
NORAD 25910·PAYLOAD·🇺🇸 United States

Wystrzelony Sep 22, 1999 z Baikonur Cosmodrome

Loading…

Następne Przeloty (najbliższe 24 godziny)

TLE

ŚwieżeSource: Space-Track

Epoka: Sep 14, 2026, 01:43 UTC

1 25910U 99049D   26257.07202295 -.00000056  00000-0  33082-3 0  9998
2 25910  52.0007 140.0508 0007219   1.1922 358.8946 12.29448411224114

Śledź GLOBALSTAR M055 w czasie rzeczywistym z AllMySat

Download on the App Store